Preview of NWS' New Version of Forecast
This preview is not operational and should not be used for support decisions.

Regional Weather Roundup (RWR)

Issued by National Weather Service (NWS)

                            
000
ASUS42 KTBW 221019
RWRFL 
FLORIDA REGIONAL WEATHER ROUNDUP
NATIONAL WEATHER SERVICE TAMPA BAY RUSKIN FL
600 AM EDT THU AUG 22 2019

NOTE: "FAIR" INDICATES FEW OR NO CLOUDS BELOW 12,000 FEET WITH NO
SIGNIFICANT WEATHER AND/OR OBSTRUCTIONS TO VISIBILITY.

FLZ001>010-012>015-112-114-115-221100-
PANHANDLE FLORIDA
  
CITY           SKY/WX    TMP DP  RH WIND       PRES   REMARKS
PENSACOLA      HVY RAIN  78  77  96 VRB7      30.02R FOG              
PENSACOLA NAS  LGT RAIN  78  78 100 NW5       30.01S                  
MILTON NAS     FAIR      73  73 100 CALM      30.03R                  
CRESTVIEW      FAIR      72  71  97 CALM      30.05R                  
DUKE FIELD     FAIR      73  73 100 CALM      30.03R                  
VALPARAISO     MOCLDY    77  76  96 N6        30.02R                  
MARY ESTHER    PTCLDY    77  74  91 N3        30.01R                  
TRI COUNTY     MOCLDY    72  70  93 CALM      30.06R FOG              
PANAMA CITY    FAIR      74  72  93 N3        30.03R                  
TYNDALL AFB    FAIR      75  73  95 E6        30.02R                  
APALACHICOLA   MOCLDY    76  74  93 N5        30.02S                  

STATION/POSITION SKY/WX   TEMP    WIND        PRES    WAVE   SWELL
                          AIR SEA DIR/SP/G            HT/PER HT/PER
                          (F)     (DEG/KT/KT) (MB)    (FT/S) (FT/S)
30.1N   87.6W              83 85  200/  6/  6 1016.1R   2/ 5   2/ 5
29.2N   88.2W              84 85  210/  6/  8 1016.0
28.8N   86.0W                 84  150/  8/ 12 1015.8R   2/ 5   2/ 5
PANAMA CITY BEAC           78 87   80/  6/  8 1017.0R
TOWER C                    82     170/  7/  7 1017.0R
28.5N   84.5W              83     150/  6/  8 1016.8S   1/ 5   2/ 5

$$
FLZ011-016>038-118-127-128-134-139-239-221100-
NORTH FLORIDA
  
CITY           SKY/WX    TMP DP  RH WIND       PRES   REMARKS
MARIANNA       FAIR      73  73 100 CALM      30.04R                  
TALLAHASSEE    MOCLDY    75  75 100 N3        30.03S                  
PERRY          FAIR      76  75  97 E3        30.04R                  
LIVE OAK       CLOUDY    73  73 100 CALM      30.04S                  
CROSS CITY     FAIR      75  74  96 E3        30.03S                  
LAKE CITY      FAIR      73  72  94 CALM      30.05S                  
GAINESVILLE    FAIR      73  71  93 CALM      30.07S                  
WILLISTON      FAIR      72  72  99 CALM      30.05R                  
MAYPORT NAS    FAIR      77  75  93 S5        30.05R                  
JACKSONVILLE   FAIR      74  72  93 CALM      30.04R                  
JAX NAS        FAIR      81  75  82 S5        30.05S                  
JAX CECIL      FAIR      72  70  94 CALM      30.05R FOG              
FERNANDINA BEA FAIR      76  75  98 MISG      30.05R                  
ST AUGUSTINE   FAIR      76  74  93 CALM      30.06R                  
PALM COAST     CLEAR     73  73 100 CALM      30.05S                  

STATION/POSITION SKY/WX   TEMP    WIND        PRES    WAVE   SWELL
                          AIR SEA DIR/SP/G            HT/PER HT/PER
                          (F)     (DEG/KT/KT) (MB)    (FT/S) (FT/S)
SHELL POINT      NOT AVBL
KEATON BEACH               76      60/  5/  6 1017.0R
CEDAR KEY                  81     150/ 11/ 12 1017.0R
FERNANDINA                 83 84              1018.1S
30.7N   81.3W                 83                N/A     2/11
MAYPORT                    79 83  220/  2/  3 1017.9R
31.4N   80.9W              82 82  200/  8/  8 1017.4S   2/11   2/11
ST AUGUSTINE               78 82  240/  4/  4 1017.7R

$$
FLZ040-043>046-052-053-057-058-063-144-221100-
INTERIOR CENTRAL FLORIDA
  
CITY           SKY/WX    TMP DP  RH WIND       PRES   REMARKS
OCALA          FAIR      75  74  96 CALM      30.06R                  
LEESBURG       FAIR      79  75  87 S5        30.05S                  
SANFORD        FAIR      78  76  93 CALM      30.04S                  
ORLANDO EXEC   FAIR      78  74  87 CALM      30.04S                  
ORLANDO INTL   FAIR      77  75  93 CALM      30.05R                  
KISSIMMEE      FAIR      77  75  93 CALM      30.06R                  
WINTER HAVEN   FAIR      78  74  87 CALM      30.06R                  
LAKELAND       CLEAR     75  73  94 CALM      30.05                   
SEBRING        FAIR      75  75  98 CALM      30.04R                  
OKEECHOBEE     FAIR      73  73 100 CALM      30.03S                  

$$
FLZ041-047-054-059-064-141-147-221100-
EAST CENTRAL FLORIDA
  
CITY           SKY/WX    TMP DP  RH WIND       PRES   REMARKS
DAYTONA BEACH  FAIR      77  75  93 CALM      30.05R                  
DELAND         FAIR      73  72  94 CALM      30.04S                  
JFK SPACE CTR  FAIR      75  56  51 CALM      30.03R                  
CAPE CANAVERAL FAIR      75  75  99 CALM      30.03R                  
PATRICK AFB    FAIR      82  80  96 SE8       30.03R                  
MELBOURNE      MOCLDY    79  75  87 CALM      30.03R                  
VERO BEACH     FAIR      77  75  93 CALM      30.03S                  
FT PIERCE      FAIR      75  72  90 CALM      30.03R                  
STUART         FAIR      79  72  78 CALM      30.04R                  

STATION/POSITION SKY/WX   TEMP    WIND        PRES    WAVE   SWELL
                          AIR SEA DIR/SP/G            HT/PER HT/PER
                          (F)     (DEG/KT/KT) (MB)    (FT/S) (FT/S)
28.5N   80.2W              83 83  130/  6/  8 1017.0R   2/11   2/11
28.9N   78.5W              84 86  110/  8/ 10 1017.9R   3/ 7   2/ 7
TRIDENT PIER               81 84  110/  3/  4 1018.5R
28.4N   80.5W                 82                N/A     2/ 4
27.5N   80.2W                 83                N/A     2/ 4

$$
FLZ050-056-061-142-242-148-248-149-249-151-251-155-255-
160-260-221100-
WEST CENTRAL FLORIDA
  
CITY           SKY/WX    TMP DP  RH WIND       PRES   REMARKS
CRYSTAL RIVER  FAIR      73  73 100 CALM      30.04S                  
INVERNESS      FAIR      73  73 100 CALM      30.05S                  
BROOKSVILLE    FAIR      74  73  97 CALM      30.05S                  
CLEARWATER AIR FAIR      77  73  88 SE3       30.02S                  
ST PETE CLEARW FAIR      79  74  84 E5        30.03R                  
TAMPA INTL     MOCLDY    79  75  87 CALM      30.03S                  
PLANT CITY     FAIR      77  77 100 CALM      30.06S                  
MACDILL AFB    FAIR      77  74  90 SE6       30.02S                  
PETER O KNIGHT FAIR     N/A N/A N/A E3        30.04R                  
ST PETERSBURG  FAIR      80  75  84 SE8       30.01S                  
SARASOTA       FAIR      77  75  93 E5        30.01R                  
VENICE         FAIR      77  77 100 E6        30.03R                  

STATION/POSITION SKY/WX   TEMP    WIND        PRES    WAVE   SWELL
                          AIR SEA DIR/SP/G            HT/PER HT/PER
                          (F)     (DEG/KT/KT) (MB)    (FT/S) (FT/S)
27.3N   84.2W                 85                N/A     2/ 7
CLEARWATER BEACH                  100/  5/  7 1016.8F
MIDDLE TAMPA BAY           79     120/  9/ 10 1016.9S
VENICE                     77 86   80/  6/  7 1016.6R

$$
FLZ066-069-070-075>078-162-262-165-265-221100-
SOUTHWEST FLORIDA AND KEYS
  
CITY           SKY/WX    TMP DP  RH WIND       PRES   REMARKS
PUNTA GORDA    FAIR      75  75 100 NE3       30.04S                  
FT MYERS       FAIR      77  74  90 CALM      30.01S                  
SOUTHWEST INTL FAIR      77  75  93 NE5       30.02S                  
NAPLES         FAIR      78  76  93 CALM      30.01S                  
MARCO ISLAND   FAIR     N/A N/A N/A CALM        N/A                   
IMMOKALEE      FAIR      75  73  94 CALM      30.00S FOG              
MARATHON       FAIR      80  72  76 CALM      29.99S                  
KEY WEST NAS   CLOUDY    83  74  74 CALM      30.00S                  
KEY WEST INTL  FAIR      80  75  84 CALM      30.00S                  

STATION/POSITION SKY/WX   TEMP    WIND        PRES    WAVE   SWELL
                          AIR SEA DIR/SP/G            HT/PER HT/PER
                          (F)     (DEG/KT/KT) (MB)    (FT/S) (FT/S)
NAPLES                     78 87              1016.2S
26.0N   85.6W              83 85  210/  4/  6 1016.4
DRY TORTUGAS               82      80/  8/  9 1015.8F
SAND KEY                   81      30/  4/  5 1014.7
SOMBRERO KEY               83      50/  4/  6 1015.9
LONG KEY                   81                 1014.8

$$
FLZ067-068-071>074-168-172>174-221100-
SOUTHEAST FLORIDA 
  
CITY           SKY/WX    TMP DP  RH WIND       PRES   REMARKS
W PALM BEACH   FAIR      82  72  71 E7        30.02R                  
FT LAUDER-EXEC LGT RAIN  81  73  76 E16       30.01R                  
FT LAUDERDALE  MOCLDY    82  73  74 E9        30.00R                  
POMPANO BEACH  FAIR      83  72  69 E10       30.00S                  
PEMBROKE PINES FAIR      80  72  76 N3        30.02S                  
OPA LOCKA      FAIR      81  74  79 CALM      30.01S                  
MIAMI          FAIR      83  72  69 N3        30.00S                  
WEST KENDALL   MOCLDY    78  76  93 CALM      30.00S                  
HOMESTEAD      CLOUDY    77  73  88 W3        29.99S                  

STATION/POSITION SKY/WX   TEMP    WIND        PRES    WAVE   SWELL
                          AIR SEA DIR/SP/G            HT/PER HT/PER
                          (F)     (DEG/KT/KT) (MB)    (FT/S) (FT/S)
VIRGINIA KEY               83 88   70/  9/ 11 1015.4R
LAKE WORTH                 83 85   80/ 11/ 12 1017.5R
FOWEY ROCKS                80 85   30/  6/  7 1016.1R
SETTLEMENT POINT           82      90/ 13/ 14 1016.7R

$$